Weather History for KFDY - January, 2014

Change the Weather History Date:

Wednesday, January 29, 2014

  Actual Average Record
Temperature  
Mean Temperature 6 °F -  
Max Temperature 16 °F 31 °F 60 °F (2002)
Min Temperature -5 °F 18 °F -8 °F (1977)
Degree Days  
Heating Degree Days 60    
Moisture  
Dew Point -4 °F    
Average Humidity 62    
Maximum Humidity 72    
Minimum Humidity 51    
Precipitation  
Precipitation 0.00 in - - ()
Sea Level Pressure  
Sea Level Pressure 30.26 in    
Wind  
Wind Speed 13 mph (SW)    
Max Wind Speed 22 mph    
Max Gust Speed 28 mph    
Visibility 10 miles    
Events      
Averages and records for this station are not official NWS values.
T = Trace of Precipitation, MM = Missing Value Source: NWS Daily Summary

Daily Weather History Graph

Daily Weather History Graph

Search for Another Location

Airport or City:

Trip Planner

Search our weather history database for the weather conditions in past years. The results will help you decide how hot, cold, wet, or windy it might be!

Date:

Astronomy

Jan. 29, 2014 Rise Set
Actual Time 7:48 AM EST 5:48 PM EST
Civil Twilight 7:18 AM EST 6:17 PM EST
Nautical Twilight 6:45 AM EST 6:50 PM EST
Astronomical Twilight 6:13 AM EST 7:22 PM EST
Moon 6:23 AM EST (1/29) 4:46 PM EST (1/29)
Length of Visible Light 10h 58m
Length of Day
9h 59m
Waning Crescent, 2% of the Moon is Illuminated
Jan 29
Waning Crescent
Jan 30
New
Feb 6
First Quarter
Feb 14
Full
Feb 22
Last Quarter

Hourly Weather History & Observations

Time (EST) Temp. Windchill Dew Point Humidity Pressure Visibility Wind Dir Wind Speed Gust Speed Precip Events Conditions
12:53 AM -5.1 °F -22.5 °F -11.9 °F 72% 30.30 in 10.0 mi SSW 10.4 mph - N/A   Clear
1:53 AM -2.0 °F -18.7 °F -9.9 °F 69% 30.27 in 10.0 mi SW 10.4 mph - N/A   Clear
2:53 AM -2.0 °F -16.6 °F -9.9 °F 69% 30.26 in 10.0 mi SW 8.1 mph - N/A   Clear
3:53 AM -2.0 °F -18.7 °F -9.0 °F 72% 30.26 in 10.0 mi SSW 10.4 mph - N/A   Clear
4:53 AM -2.0 °F -20.5 °F -9.0 °F 72% 30.25 in 10.0 mi SSW 12.7 mph - N/A   Clear
5:53 AM -0.9 °F -19.9 °F -9.0 °F 69% 30.25 in 10.0 mi SW 13.8 mph - N/A   Clear
6:53 AM -0.0 °F -19.4 °F -9.0 °F 66% 30.25 in 10.0 mi SW 15.0 mph - N/A   Clear
7:53 AM 1.9 °F -16.2 °F -7.1 °F 66% 30.24 in 10.0 mi SW 13.8 mph - N/A   Clear
8:53 AM 5.0 °F -13.0 °F -6.0 °F 61% 30.25 in 10.0 mi WSW 15.0 mph - N/A   Clear
9:53 AM 7.0 °F -12.1 °F -4.0 °F 61% 30.27 in 10.0 mi WSW 18.4 mph 26.5 mph N/A   Clear
10:53 AM 9.0 °F -7.9 °F -2.0 °F 61% 30.27 in 10.0 mi WSW 15.0 mph - N/A   Clear
11:53 AM 12.0 °F -6.9 °F -2.0 °F 53% 30.27 in 10.0 mi WSW 21.9 mph 27.6 mph N/A   Clear
12:53 PM 12.9 °F -4.4 °F -0.0 °F 56% 30.25 in 10.0 mi WSW 18.4 mph 27.6 mph N/A   Clear
1:53 PM 14.0 °F -3.9 °F 1.0 °F 56% 30.24 in 10.0 mi WSW 20.7 mph - N/A   Clear
2:53 PM 15.1 °F -2.0 °F -0.0 °F 51% 30.25 in 10.0 mi WSW 19.6 mph - N/A   Clear
3:53 PM 16.0 °F 0.1 °F 1.0 °F 52% 30.25 in 10.0 mi WSW 17.3 mph 24.2 mph N/A   Clear
4:53 PM 16.0 °F 1.7 °F 1.0 °F 52% 30.26 in 10.0 mi SW 13.8 mph - N/A   Clear
5:53 PM 15.1 °F 1.1 °F -0.0 °F 51% 30.27 in 10.0 mi SW 12.7 mph - N/A   Clear
6:53 PM 10.9 °F -1.8 °F -0.0 °F 61% 30.27 in 10.0 mi SW 9.2 mph - N/A   Clear
7:53 PM 8.1 °F -6.2 °F -0.9 °F 67% 30.27 in 10.0 mi South 10.4 mph - N/A   Clear
8:53 PM 8.1 °F -7.7 °F -0.0 °F 70% 30.26 in 10.0 mi South 12.7 mph - N/A   Clear
9:53 PM 10.0 °F -3.7 °F -0.0 °F 64% 30.26 in 10.0 mi South 10.4 mph - N/A   Clear
10:53 PM 10.0 °F -4.5 °F -0.0 °F 64% 30.25 in 10.0 mi South 11.5 mph - N/A   Clear
11:53 PM 10.9 °F -3.4 °F 1.0 °F 64% 30.24 in 10.0 mi South 11.5 mph - N/A   Clear